Location: *
(40.7873°S, 98.7174°E)
Time: 22:51:10
(UTC+00:00)

Cosmos 1153 Rocket - Pass Details

Date: 09 October 2022
Orbit: 953 x 1007 km, 82.9° (Epoch: 08 December)

Event Time Altitude Azimuth Distance (km) Brightness Sun altitude
Rises 19:29:40 0° 191° (S) 3,679 8.0 -33.2°
Reaches altitude 10° 19:32:12 10° 193° (SSW) 2,721 7.2 -32.9°
Enters shadow 19:36:14 41° 208° (SSW) 1,364 5.3 -32.3°
